Theta_e
346 351 359 357 357 357 356 356 356 355 355 354 353 354 354 354 354 354 354 354 356 355 355 355 355 355 355 355 355 354 353 353 352 352 352 352 351 347 348 350 346 342 347
349 352 359 358 357 356 356 355 355 355 354 354 353 353 353 353 353 353 353 354 355 355 355 355 354 354 353 353 354 354 354 353 353 353 353 352 351 349 346 348 347 345 347
350 352 355 359 357 356 356 355 355 354 354 354 353 352 352 352 352 352 353 354 355 355 355 354 353 352 351 351 351 352 353 353 353 353 352 348 346 353 348 347 349 348 347
350 350 353 359 358 356 355 355 355 354 353 353 352 352 352 352 352 352 353 353 352 352 352 353 351 348 347 348 348 349 351 351 351 351 340 344 347 353 351 350 348 348 348
346 349 351 358 358 356 355 355 355 354 354 353 352 352 352 352 352 353 353 353 350 348 350 350 349 346 346 346 349 351 351 351 350 335 331 342 347 355 354 351 349 350 349
344 347 355 359 359 357 355 355 354 353 353 353 351 351 351 352 353 354 353 353 349 346 348 349 351 349 349 349 350 351 350 350 346 321 318 347 346 354 354 354 352 351 350
343 345 352 358 358 357 355 354 355 355 355 354 352 352 352 353 354 354 354 354 350 348 349 350 350 349 349 349 349 349 349 349 333 321 319 340 346 353 355 355 355 353 351
344 348 350 356 359 358 358 357 357 356 355 354 353 353 353 353 352 353 355 354 349 348 347 348 349 350 349 349 349 348 348 348 338 329 323 338 344 351 351 353 354 353 352
346 347 348 349 354 358 358 357 357 355 355 354 352 352 353 354 352 353 354 355 351 347 346 346 348 349 349 349 349 349 349 350 336 329 325 339 348 350 351 349 350 351 351
344 344 344 347 349 349 351 358 357 356 355 353 351 348 346 349 354 353 352 353 352 348 346 346 348 349 350 349 349 347 347 346 324 320 331 341 352 351 352 351 350 351 350
340 339 343 345 344 347 348 352 356 354 353 348 343 343 340 338 341 342 346 350 349 350 347 348 346 345 343 334 340 340 337 327 328 322 335 346 351 350 349 350 348 348 349
335 336 338 340 343 345 346 346 349 345 339 334 333 334 336 337 340 343 343 348 350 347 342 336 337 333 325 318 318 324 320 322 324 323 323 343 350 349 348 347 346 346 346
336 337 336 338 340 341 341 346 342 339 333 333 333 335 332 337 335 329 327 325 320 328 320 320 319 317 316 317 316 315 315 316 317 319 323 343 347 347 344 346 347 346 346
330 334 336 336 336 340 345 343 342 335 331 331 332 333 329 333 333 327 323 320 319 319 318 317 316 316 316 316 314 314 313 314 315 316 320 332 346 346 346 345 345 345 345
331 335 337 338 340 340 342 340 339 335 331 330 332 331 331 331 331 324 321 319 320 319 317 316 315 315 314 314 313 313 313 313 314 316 316 329 336 344 345 346 343 341 341
339 336 340 340 341 342 340 338 338 336 331 332 331 333 334 333 328 322 320 321 320 318 317 316 315 314 313 312 312 313 314 312 313 314 317 317 329 338 343 344 345 343 339
336 340 339 342 345 342 341 340 338 336 333 333 332 335 338 331 326 322 320 319 320 318 318 316 315 314 313 313 311 313 312 312 312 314 316 317 320 328 336 343 343 343 342
331 333 344 349 340 338 334 334 335 334 335 335 333 332 332 330 328 321 321 319 321 319 317 316 313 312 312 311 310 311 309 310 310 312 313 313 316 319 327 345 343 341 340
339 339 338 339 337 335 333 334 332 332 333 332 328 331 332 330 326 322 320 321 322 317 315 315 313 312 310 310 311 310 309 308 309 314 312 312 314 318 319 336 339 339 340
334 334 334 338 337 337 334 333 333 331 328 325 324 327 330 329 325 322 320 320 318 315 315 312 310 310 310 308 312 310 307 309 308 308 310 314 314 319 319 320 324 328 333
330 333 332 327 334 336 335 331 331 329 328 328 329 328 327 329 327 322 321 321 317 315 313 310 310 308 307 307 304 304 305 306 305 309 313 312 315 318 320 321 323 322 323
326 325 324 325 325 335 337 336 335 331 331 330 331 329 328 328 325 324 321 318 316 312 309 309 307 306 306 306 303 300 298 302 305 310 312 312 311 316 315 317 319 319 321
322 324 324 322 326 335 338 335 334 334 330 326 321 322 323 325 324 321 320 316 312 310 309 308 308 309 303 305 305 303 299 298 300 305 310 313 311 310 311 312 316 318 318
322 324 325 327 330 333 334 335 331 328 324 319 319 319 318 320 317 316 314 313 311 313 310 310 313 307 305 303 304 308 306 307 302 296 306 310 312 312 311 309 313 315 318
323 323 324 329 328 327 332 334 329 324 321 321 319 317 316 318 319 318 316 313 313 312 312 313 308 306 306 304 302 303 302 307 308 304 297 303 307 307 309 310 310 311 316
324 325 330 324 322 325 333 332 330 323 319 317 315 314 314 314 317 316 315 315 315 314 312 309 308 310 309 305 304 307 307 305 304 304 303 300 298 302 305 306 308 311 317
Wind_Speed
7 9 15 16 15 13 12 11 11 10 10 10 10 10 9 9 9 9 9 9 8 9 10 10 10 10 10 10 10 10 10 10 10 9 8 5 1 3 6 10 9 8 9
12 11 16 16 15 14 13 12 10 10 9 9 8 8 7 7 7 7 7 8 8 8 8 9 10 10 10 10 10 10 11 10 10 8 8 6 4 4 2 7 10 9 10
13 11 12 15 15 14 13 12 10 9 9 8 7 6 5 5 5 5 6 6 7 7 8 8 9 10 10 10 10 9 10 10 9 10 10 4 5 8 6 5 8 13 11
13 9 10 16 14 14 13 12 10 9 8 6 5 4 4 3 3 3 3 3 3 4 5 6 6 6 7 9 10 10 10 9 10 12 7 5 6 9 10 7 6 10 13
12 10 11 16 15 15 13 12 10 9 8 8 6 5 3 3 2 1 1 1 2 2 3 3 4 5 5 7 9 10 11 11 11 10 7 4 3 12 14 8 8 8 13
11 10 15 17 15 14 13 12 11 10 8 6 4 3 1 2 2 2 3 2 2 2 2 3 5 6 7 7 8 10 12 12 9 6 6 4 3 5 12 14 11 9 11
10 6 11 17 15 14 14 13 12 10 8 7 6 5 4 4 4 5 6 5 5 3 3 4 4 6 8 9 10 12 14 12 5 6 6 4 3 9 11 12 12 12 10
15 9 8 15 16 15 14 13 10 7 7 6 4 3 5 5 5 6 8 7 7 4 5 6 8 9 13 10 10 13 17 16 5 5 6 4 5 6 8 10 12 12 11
11 11 8 9 13 15 14 12 10 9 7 6 5 5 4 5 7 8 7 9 9 7 5 6 7 8 10 15 14 14 17 21 4 3 7 3 10 12 9 10 11 10 8
9 9 8 7 7 7 6 11 11 8 6 4 2 4 3 2 8 10 8 8 11 10 5 8 8 8 9 11 14 14 16 18 4 4 4 3 13 12 11 8 8 8 8
6 7 8 7 6 6 5 6 7 8 9 10 8 6 3 1 4 6 8 7 11 10 7 7 7 8 8 11 11 12 14 5 8 1 3 9 11 10 10 11 11 10 9
10 10 8 8 8 7 8 6 5 5 4 5 5 6 4 2 4 7 10 10 8 7 5 8 9 11 10 4 4 8 3 6 5 5 2 13 12 12 13 14 13 12 11
13 7 10 9 8 9 6 5 4 4 4 4 6 4 1 1 4 4 3 3 1 4 3 5 6 4 5 5 5 4 5 5 3 4 8 13 14 16 17 16 16 15 12
4 9 10 10 9 9 5 7 7 5 4 4 3 3 3 3 3 2 1 3 3 2 3 4 3 5 6 6 4 5 5 4 3 4 6 14 12 16 19 18 17 16 15
6 7 7 9 9 11 8 5 6 7 5 3 3 3 3 2 3 5 3 3 3 2 3 3 4 4 5 5 6 6 6 6 6 5 5 17 13 17 21 20 17 16 15
16 12 8 9 9 10 8 9 7 5 4 3 2 3 4 4 4 4 3 2 2 1 2 1 3 3 3 3 5 6 6 4 5 6 5 7 17 16 18 21 17 18 16
15 18 13 5 6 8 10 8 6 5 4 4 4 6 10 6 6 5 4 2 2 1 2 3 3 3 4 4 5 5 5 5 4 5 6 4 9 14 18 23 21 16 14
17 28 7 7 6 6 5 4 4 4 6 5 5 5 6 7 7 4 3 2 2 0 2 2 1 2 3 4 4 5 4 5 7 7 5 6 7 7 13 12 16 12 10
9 8 9 6 5 6 6 5 4 6 5 4 3 3 6 7 5 5 4 4 3 3 2 2 2 2 2 3 4 3 5 5 7 7 10 8 7 8 4 7 12 10 9
24 9 14 10 5 3 2 3 1 1 1 2 3 5 6 5 6 2 4 5 4 2 2 2 2 2 3 3 3 4 5 6 4 5 7 7 5 3 4 6 6 4 6
11 15 6 4 3 4 1 1 0 4 2 3 5 6 6 4 4 5 4 5 4 4 4 3 2 1 2 2 2 3 4 6 4 4 3 5 7 6 7 5 6 3 3
8 6 8 6 3 3 5 2 3 2 3 2 3 2 4 5 5 5 6 5 3 3 2 2 2 0 2 1 1 1 3 5 3 4 3 4 6 5 6 4 3 1 3
6 4 6 4 4 3 3 1 2 1 2 3 3 3 5 4 4 4 3 2 1 1 3 3 2 3 2 3 2 3 2 2 4 3 2 2 5 4 4 5 5 6 4
5 5 5 8 4 4 4 3 1 1 1 1 1 3 5 7 6 5 4 4 3 3 2 3 2 3 3 3 3 3 3 3 3 5 2 2 2 5 6 6 6 5 5
5 5 4 7 6 4 10 5 1 3 2 3 3 6 5 3 4 5 4 2 4 3 3 1 3 3 2 2 3 2 2 3 3 3 4 2 2 2 3 2 5 3 4
6 8 6 6 6 8 11 5 4 6 5 6 5 4 3 2 3 5 4 3 4 2 3 3 4 4 4 4 3 3 3 2 2 3 3 1 2 4 4 3 3 3 3
Wind_Direction
178 179 152 145 139 134 128 117 109 101 91 82 75 69 63 58 55 50 46 38 30 33 29 27 25 22 18 13 8 0 357 2 8 5 356 347 79 58 4 149 111 105 100
154 164 155 148 143 139 133 126 117 106 96 86 77 69 60 52 47 42 36 31 30 30 26 22 18 14 11 7 2 356 352 356 1 354 330 309 289 173 123 126 125 116 107
159 156 152 150 148 144 138 131 123 115 108 103 95 86 78 61 49 38 27 21 20 17 15 19 20 10 3 360 357 353 347 348 351 336 320 277 232 205 155 148 141 125 112
154 147 153 155 154 148 142 134 130 127 124 124 125 121 118 107 89 72 56 36 24 21 16 18 16 5 358 352 348 342 336 339 345 342 325 278 231 187 165 170 168 140 124
156 155 164 159 156 152 147 144 143 148 156 161 153 151 147 137 135 124 116 92 30 12 25 13 356 355 341 340 337 331 326 336 352 350 325 333 152 172 164 186 178 180 140
161 167 165 162 157 153 153 157 161 170 173 167 158 157 168 227 205 207 224 225 267 294 317 326 337 334 328 329 330 320 317 329 358 340 337 303 160 166 170 178 191 185 161
163 172 167 159 158 162 166 172 178 175 177 183 188 187 196 220 250 243 228 216 238 267 327 318 322 323 312 320 322 318 312 320 352 328 317 264 275 201 189 187 198 189 178
158 165 167 168 167 172 177 180 182 178 187 193 206 232 253 242 210 232 256 242 244 265 296 310 335 330 324 323 324 320 315 315 354 301 299 281 206 202 209 210 199 194 182
159 158 172 176 179 180 185 180 178 189 194 208 212 229 255 276 258 238 225 259 262 265 277 307 321 319 321 325 328 320 313 313 31 294 298 224 209 199 187 189 181 185 188
165 166 176 175 181 185 189 177 191 190 189 201 219 167 171 323 253 259 241 245 266 275 315 330 320 329 329 340 330 337 341 338 94 303 304 201 220 209 189 182 157 167 171
172 191 183 175 182 186 143 187 189 192 185 188 215 233 231 287 277 278 260 237 265 288 323 336 17 11 9 6 350 348 348 332 330 326 273 219 221 203 191 177 177 178 176
183 200 190 184 180 165 180 165 176 186 236 247 243 232 218 182 260 250 255 229 259 304 34 31 17 17 11 13 331 343 336 323 318 313 259 253 227 212 190 185 183 183 182
203 184 191 182 177 176 167 160 178 191 216 252 242 245 196 29 27 37 52 49 72 54 50 29 12 9 354 11 345 349 348 337 314 307 321 314 233 208 203 196 191 185 182
313 209 197 184 178 180 154 177 179 187 215 243 256 287 13 41 7 280 124 139 106 83 52 36 4 346 12 8 3 350 341 324 315 316 316 320 254 216 215 206 199 192 188
6 273 194 155 170 168 168 167 181 204 217 232 301 340 1 337 301 259 70 70 85 80 56 17 354 9 6 350 348 341 329 328 329 331 313 316 303 244 231 217 203 202 197
353 306 217 180 150 151 178 185 190 197 197 142 229 263 244 235 232 229 172 118 129 127 137 3 27 20 343 328 325 324 309 314 340 314 312 312 312 288 253 242 220 212 205
298 301 224 141 113 138 170 189 196 199 171 172 190 221 226 204 217 210 172 144 196 195 56 37 48 350 332 332 310 303 310 314 289 302 306 301 310 306 278 243 228 223 209
274 283 173 125 112 128 130 143 149 180 171 182 196 198 219 210 214 190 172 181 226 153 88 96 66 313 306 323 304 303 308 308 309 303 285 292 290 297 299 250 216 224 210
332 330 75 98 124 129 121 142 162 174 166 155 144 211 227 212 202 182 184 182 201 177 153 163 195 190 283 303 292 290 304 291 290 307 297 280 279 289 284 229 186 207 200
79 11 337 344 53 67 129 105 94 86 126 169 215 234 220 229 230 191 199 192 196 141 175 198 182 215 216 237 287 305 287 276 283 290 293 298 277 293 358 57 44 61 83
132 136 198 221 102 309 277 241 189 240 236 259 199 213 230 242 253 199 215 222 188 194 192 201 177 351 313 340 3 321 302 297 307 302 312 356 24 28 34 8 88 336 69
153 157 241 196 125 269 253 228 238 192 240 234 284 313 253 268 223 219 233 218 241 143 180 168 124 204 266 237 224 243 322 322 312 284 6 38 29 30 26 33 0 152 36
139 161 225 301 284 25 240 305 338 312 61 17 2 20 17 0 304 308 331 41 57 246 209 227 173 164 229 289 192 199 309 271 334 310 72 54 45 30 357 338 311 40 23
217 241 323 288 323 329 307 277 130 134 53 301 23 33 26 22 52 70 98 135 177 257 252 231 208 206 168 236 309 229 225 231 211 307 318 29 68 42 340 340 339 357 350
235 316 339 302 257 301 314 243 164 113 75 4 24 50 15 344 36 18 61 329 304 299 268 213 268 247 210 211 208 258 250 242 230 219 288 308 342 209 230 256 289 334 332
326 335 344 288 280 294 279 283 13 67 45 52 7 351 331 340 30 35 17 352 330 335 309 290 291 271 255 245 246 232 231 244 229 237 255 227 211 297 315 330 337 344 346